Flag for United Kingdom Past Weather in Lerwick (Shetland Islands), Scotland, United Kingdom — Yesterday and Last 2 Weeks

Now
48 °F

Fog.


Feels Like: 41 °F
Forecast: 45 / 47 °F
Wind: 20 mph from Southwest

Location: Scatsa / Shetland Island

Current Time: Jan 17, 2017 at 1:18:47 pm

Latest Report: Jan 17, 2017 at 12:20 pm


Visibility: 0 mi

Pressure: 30.24 "Hg

Humidity: 100%

Dew Point: 48 °F

Location of Lerwick (Shetland Islands)Location

Past Weather in Lerwick (Shetland Islands) — Graph

°F

Lerwick (Shetland Islands) Temperature Yesterday

Maximum temperature yesterday: 48 °F (at 10:50 am)
Minimum temperature yesterday: 43 °F (at 12:20 am)
Average temperature yesterday: 47 °F

High & Low Weather Summary for the Past Weeks

 TemperatureHumidityPressure
High50 °F (Jan 8, 10:50 pm)100% (Jan 16, 9:50 am)30.42 "Hg (Jan 16, 9:50 am)
Low28 °F (Jan 14, 4:20 am)48% (Jan 14, 12:20 pm)28.74 "Hg (Jan 11, 2:50 am)
Average41 °F80%29.79 "Hg
* Reported Jan 2 11:20 am — Jan 17 11:50 am, Lerwick (Shetland Islands), Weather by CustomWeather, © 2017

Note: Actual official high and low records may vary slightly from our data, if they occured in-between our weather recording intervals... More about our weather records

Advertising

Lerwick (Shetland Islands) Weather History for the Previous 24 Hours

Scroll right to see more
 ConditionsComfort  
Time TempWeatherWind HumidityBarometerVisibility
11:50 am
Tue, Jan 17
48 °FFog.20 mph100%30.24 "Hg1 mi
11:20 am48 °FFog.21 mph100%30.24 "Hg1 mi
10:50 am50 °FFog.22 mph94%30.24 "Hg1 mi
10:20 am50 °FFog.22 mph94%30.24 "Hg1 mi
9:50 am50 °FDrizzle. Fog.22 mph94%30.24 "Hg1 mi
9:20 am48 °FDrizzle. Fog.22 mph100%30.24 "Hg1 mi
8:50 am50 °FDrizzle. Fog.18 mph94%30.21 "Hg2 mi
7:50 am50 °FDrizzle. Fog.16 mph94%30.21 "Hg2 mi
7:20 am48 °FPassing clouds.16 mph94%30.18 "Hg4 mi
6:50 am48 °FPassing clouds.16 mph100%30.18 "Hg4 mi
6:20 am48 °FPassing clouds.15 mph94%30.18 "Hg3 mi
5:50 am48 °FPassing clouds.15 mph94%30.18 "Hg4 mi
5:20 am48 °FFog.15 mph94%30.18 "Hg2 mi
4:50 am48 °FDrizzle. Low clouds.16 mph94%30.18 "Hg1 mi
4:20 am48 °FFog.12 mph94%30.18 "Hg2 mi
3:50 am48 °FFog.12 mph94%30.18 "Hg3 mi
3:20 am48 °FFog.8 mph94%30.18 "Hg2 mi
2:50 am48 °FFog.8 mph94%30.18 "Hg1 mi
2:20 am46 °FFog.9 mph100%30.18 "Hg1 mi
1:50 am46 °FFog.8 mph100%30.18 "Hg1 mi
1:20 am46 °FFog.8 mph100%30.21 "Hg1 mi
12:50 am48 °FFog.9 mph94%30.21 "Hg3 mi
12:20 am48 °FFog.13 mph94%30.21 "Hg1 mi
11:50 pm
Mon, Jan 16
48 °FFog.12 mph94%30.21 "Hg0 mi
11:20 pm48 °FFog.13 mph94%30.18 "Hg1 mi
10:50 pm48 °FFog.12 mph94%30.18 "Hg1 mi
10:20 pm46 °FFog.12 mph100%30.18 "Hg1 mi
9:50 pm48 °FFog.12 mph94%30.18 "Hg1 mi
9:20 pm48 °FFog.14 mph94%30.18 "Hg3 mi
8:50 pm48 °FFog.17 mph94%30.18 "Hg1 mi
8:20 pm48 °FFog.15 mph94%30.18 "Hg0 mi
7:50 pm48 °FFog.16 mph94%30.18 "Hg1 mi
7:20 pm48 °FLow clouds.16 mph94%30.15 "Hg1 mi
6:50 pm48 °FLow clouds.15 mph94%30.15 "Hg2 mi
6:20 pm48 °FLow clouds.15 mph94%30.15 "Hg1 mi
5:50 pm48 °FRain. Low clouds.15 mph94%30.15 "Hg1 mi
5:20 pm48 °FPassing clouds.15 mph94%30.15 "Hg5 mi
4:50 pm48 °FPassing clouds.14 mph94%30.15 "Hg5 mi
3:50 pm48 °FDrizzle. Fog.16 mph94%30.15 "Hg3 mi
3:20 pm48 °FFog.16 mph94%30.15 "Hg1 mi
2:50 pm48 °FDrizzle. Fog.16 mph94%30.12 "Hg1 mi
2:20 pm48 °FDrizzle. Fog.15 mph94%30.12 "Hg2 mi
1:50 pm48 °FScattered clouds.14 mph94%30.15 "Hg4 mi
1:20 pm48 °FScattered clouds.14 mph94%30.12 "HgN/A
Weather by CustomWeather, © 2017

See weather overviewHow to use our weather pages